TimeCST,TemperatureF,Dew PointF,Humidity,Sea Level PressureIn,VisibilityMPH,Wind Direction,Wind SpeedMPH,Gust SpeedMPH,PrecipitationIn,Events,Conditions,WindDirDegrees,DateUTC
12:53 AM,50.0,37.0,61,29.94,10.0,SSE,11.5,-,N/A,,Clear,150,2013-11-04 06:53:00
1:53 AM,50.0,37.0,61,29.94,10.0,SSE,8.1,18.4,N/A,,Mostly Cloudy,160,2013-11-04 07:53:00
2:53 AM,50.0,39.0,66,29.92,10.0,SSE,12.7,24.2,0.00,Rain,Light Rain,150,2013-11-04 08:53:00
3:53 AM,48.9,39.0,69,29.92,10.0,SSE,13.8,20.7,0.00,,Overcast,160,2013-11-04 09:53:00
4:53 AM,46.9,41.0,80,29.94,9.0,SSE,10.4,19.6,0.05,Rain,Light Rain,160,2013-11-04 10:53:00
5:53 AM,46.0,42.1,86,29.93,10.0,SSE,16.1,24.2,0.08,,Overcast,150,2013-11-04 11:53:00
6:53 AM,46.0,42.1,86,29.92,10.0,SSE,16.1,25.3,N/A,,Overcast,150,2013-11-04 12:53:00
7:53 AM,46.0,42.1,86,29.95,10.0,SSE,11.5,20.7,N/A,,Overcast,160,2013-11-04 13:53:00
8:53 AM,48.0,42.1,80,29.96,10.0,SSE,10.4,20.7,N/A,,Overcast,160,2013-11-04 14:53:00
9:53 AM,51.1,44.1,77,29.96,10.0,South,15.0,21.9,N/A,,Mostly Cloudy,170,2013-11-04 15:53:00
10:53 AM,52.0,44.1,74,29.97,10.0,South,12.7,21.9,N/A,,Overcast,180,2013-11-04 16:53:00
11:20 AM,51.8,44.6,76,29.97,10.0,South,11.5,-,N/A,,Overcast,180,2013-11-04 17:20:00
11:53 AM,53.1,45.0,74,29.98,10.0,South,13.8,-,N/A,,Overcast,190,2013-11-04 17:53:00
12:53 PM,54.0,45.0,72,29.99,10.0,South,9.2,-,N/A,,Overcast,190,2013-11-04 18:53:00
2:53 PM,55.0,46.9,74,29.99,10.0,South,5.8,-,N/A,,Overcast,170,2013-11-04 20:53:00
3:53 PM,55.9,46.0,69,30.01,10.0,SSW,5.8,-,N/A,,Overcast,210,2013-11-04 21:53:00
4:53 PM,53.1,46.0,77,30.03,10.0,SSW,5.8,-,N/A,,Overcast,200,2013-11-04 22:53:00
5:53 PM,54.0,46.0,75,30.05,10.0,South,5.8,-,N/A,,Overcast,180,2013-11-04 23:53:00
6:53 PM,53.1,46.0,77,30.08,10.0,South,5.8,-,N/A,,Overcast,190,2013-11-05 00:53:00
7:53 PM,53.1,46.0,77,30.09,10.0,South,5.8,-,N/A,,Overcast,190,2013-11-05 01:53:00
8:53 PM,53.1,46.0,77,30.10,10.0,Calm,Calm,-,N/A,,Overcast,0,2013-11-05 02:53:00
9:53 PM,50.0,45.0,83,30.12,10.0,NNE,3.5,-,N/A,,Overcast,20,2013-11-05 03:53:00
10:53 PM,48.9,43.0,80,30.12,10.0,NNE,5.8,-,N/A,,Overcast,30,2013-11-05 04:53:00
11:53 PM,48.9,43.0,80,30.13,10.0,NNE,4.6,-,N/A,,Overcast,30,2013-11-05 05:53:00